Location: Silverdale
(47.6506°N, 122.6941°W)
Time: 06:50:41
(UTC+00:00)

Tiros 1 despin weight - Pass Details

Date: 05 October 2022
Orbit: 590 x 637 km, 48.2° (Epoch: 09 December)

Event Time Altitude Azimuth Distance (km) Brightness Sun altitude
Rises 02:51:24 0° 278° (W) 2,869 ? -12.2°
Reaches altitude 10° 02:53:41 10° 278° (W) 1,973 ? -12.6°
Maximum altitude 02:58:14 88° 2° (N) 626 ? -13.4°
Enters shadow 03:01:10 22° 98° (E) 1,365 ? -13.9°
